Regional Weather Roundup
Issued by NWS

Home | Current Version | Previous Version | Text Only | Print | Product List | Glossary Off
Versions: 1 2 3 4 5 6 7 8 9 10 11 12 13 14 15 16 17 18 19 20 21 22 23 24 25 26 27 28 29 30 31 32 33 34 35 36 37 38 39 40 41 42 43 44 45 46 47 48 49 50

000
ASUS43 KDTX 262301
RWRMI
MICHIGAN HOURLY REGIONAL WEATHER ROUNDUP
NATIONAL WEATHER SERVICE DETROIT/PONTIAC MI
700 PM EDT FRI AUG 26 2016

NOTE: "FAIR" INDICATES FEW OR NO CLOUDS BELOW 12,000 FEET WITH NO
SIGNIFICANT WEATHER AND/OR OBSTRUCTION TO VISIBILITY.

MIZ047>049-052>055-059>063-066>070-074>076-081>083-270000-
SOUTHEAST LOWER MICHIGAN

CITY           SKY/WX    TMP DP  RH WIND       PRES   REMARKS
ADRIAN         MOSUNNY   79  65  62 SW5       30.13R
ALMA           SUNNY     79  64  60 W13       30.13R
ANN ARBOR      SUNNY     82  62  50 NW5       30.12R
BAD AXE        SUNNY     76  60  57 W3        30.12S
CARO           SUNNY     78  65  63 SW5       30.12S
DETROIT CITY   SUNNY     84  58  40 W3        30.11R
DETROIT        MOSUNNY   83  62  49 NW7       30.12R
FLINT          SUNNY     82  61  48 W5        30.13R
GROSSE ILE     SUNNY     78  69  73 S6        30.11R
HILLSDALE      MOSUNNY   78  67  68 CALM      30.14S
HOWELL         SUNNY     80  61  52 W6        30.14R

CITY           SKY/WX    TMP DP  RH WIND       PRES   REMARKS
JACKSON        MOSUNNY   78  65  63 W3        30.14R
LAMBERTVILLE   SUNNY     83  64  52 CALM      30.13S
LANSING        SUNNY     80  61  52 W6        30.14R
LAPEER         FAIR      79  60  53 NW5       30.13R
MASON          SUNNY     80  60  50 W7        30.14R
MONROE         SUNNY     81  67  62 CALM      30.11R
MT. CLEMENS    MOSUNNY   80  67  65 CALM      30.10R
PONTIAC        MOSUNNY   80  61  52 NW9       30.13R
PORT HURON     SUNNY     79  64  61 CALM      30.12R
TRI CITIES     SUNNY     78  63  59 SW9       30.12R
MIDLAND        FAIR      79  60  51 W6        30.10S
TROY           SUNNY     85  54  35 NW5       30.14R
SAGINAW HB     SUNNY     79  61  53 SW8       30.11S
$$
MIZ043>046-050>051-056>058-064>065-071>073-077>080-270000-
SOUTHWEST LOWER MICHIGAN

CITY           SKY/WX    TMP DP  RH WIND       PRES   REMARKS
BATTLE CREEK   MOSUNNY   79  64  60 N7        30.14S
BENTON HARBOR  MOSUNNY   74  61  63 CALM      30.13S
BIG RAPIDS     SUNNY     74  53  46 NW6       30.14R
COLDWATER      CLOUDY    78  64  60 N3        30.13S
FREMONT        FAIR      73  53  49 W6        30.14S
HOLLAND        SUNNY     73  60  63 VRB3      30.15S
GRAND RAPIDS   PTSUNNY   77  58  51 NW9       30.14R
IONIA          FAIR      77  60  56 NW6       30.12S
KALAMAZOO      MOSUNNY   81  62  52 NW5       30.13S
LUDINGTON      MOSUNNY   69  58  68 CALM      30.15R
MARSHALL       MOSUNNY   82  63  51 CALM      30.13S
MOUNT PLEASANT SUNNY     78  60  52 NW7       30.11S
MUSKEGON       PTSUNNY   71  59  65 W6        30.15R
SOUTH HAVEN    MOSUNNY   74  63  67 N5        30.14S
$$
MIZ016>042-270000-
NORTHERN LOWER MICHIGAN

CITY           SKY/WX    TMP DP  RH WIND       PRES   REMARKS
ALPENA         MOSUNNY   73  60  63 E5        30.12S
BEAVER ISLAND  MOSUNNY   69  59  71 W7        30.14S
BELLAIRE       CLOUDY    72  54  54 W3        30.14S
CADILLAC       SUNNY     71  53  53 W5        30.15R
CHARLEVOIX     MOSUNNY   69  57  67 W9        30.17S
FRANKFORT      CLOUDY    71  57  61 W5        30.14S
GAYLORD        SUNNY     71  53  52 W7        30.15R
GRAYLING       SUNNY     73  55  54 W6        30.15R
HARBOR SPRINGS CLOUDY    68  58  71 W6        30.14R
HOUGHTON LAKE  SUNNY     75  55  49 W9        30.14R
MANISTEE       CLOUDY    69  56  62 W5        30.14S
OSCODA         MOSUNNY   77  61  57 NE6       30.09R
PELLSTON       MOSUNNY   69  56  62 W7        30.14R
ROGERS CITY    MOSUNNY   71  62  74 N7        30.13S
TRAVERSE CITY  CLOUDY    73  53  49 W7        30.12S
$$
MIZ007>008-015-270000-
EASTERN UPPER MICHIGAN

CITY           SKY/WX    TMP DP  RH WIND       PRES   REMARKS
KINROSS        CLOUDY    65  57  75 N13       30.14R
MACKINAC ISLAN MOSUNNY   68  59  72 W10       30.13R
NEWBERRY       PTSUNNY   67  58  72 N9        30.13S
S. S. MARIE    MOSUNNY   67  54  63 NW9       30.13R
MUNISING         N/A     67  58  72 NE6       30.14R
$$
MIZ004>006-011>014-085-270000-
CENTRAL UPPER MICHIGAN

CITY           SKY/WX    TMP DP  RH WIND       PRES   REMARKS
MANISTIQUE     CLOUDY    68  58  71 N5        30.13R
ESCANABA       CLOUDY    69  59  70 N6        30.13R
MENOMINEE      CLOUDY   N/A N/A N/A W3        30.14R
SAWYER-GWINN   MOSUNNY   63  55  77 NE8       30.16R
$$
MIZ001>003-009>011-084-270000-
WESTERN UPPER MICHIGAN

CITY           SKY/WX    TMP DP  RH WIND       PRES   REMARKS
IRON MOUNTAIN  PTSUNNY   69  51  52 NW6       30.13S
HOUGHTON       PTSUNNY   62  51  67 W8        30.14F
COPPER HARBOR    N/A     63  55  75 CALM      30.14S
IRONWOOD       PTSUNNY   65  48  54 CALM      30.17S
$$

ABBREVIATIONS USED IN REMARKS
   TC - TEMPERATURE IN CELSIUS
  WCI - WIND CHILL INDEX
   HX - HEAT INDEX
  VSB - VISIBILITY





USA.gov is the U.S. government's official web portal to all federal, state and local government web resources and services.